Regional Weather Roundup
Issued by NWS

Home | Current Version | Previous Version | Graphics & Text | Print | Product List | Glossary On
Versions: 1 2 3 4 5 6 7 8 9 10 11 12 13 14 15 16 17 18 19 20 21 22 23 24 25 26 27 28 29 30 31 32 33 34 35 36 37 38 39 40 41 42 43 44 45 46 47 48 49 50
000
ASUS45 KBOU 240407
RWRCO

WEATHER ROUNDUP FOR COLORADO
NATIONAL WEATHER SERVICE DENVER/BOULDER CO
1000 PM MDT MON MAY 23 2016

NOTE: "FAIR" INDICATES FEW OR NO CLOUDS BELOW 12000 FEET WITH NO
SIGNIFICANT WEATHER AND/OR OBSTRUCTIONS TO VISIBILITY.

COZ001>005-013-030-031-240500-
...NORTHWEST COLORADO...

CITY           SKY/WX    TMP DP  RH WIND       PRES   REMARKS
CRAIG          FAIR      52  34  50 CALM      29.94R
HAYDEN         FAIR      48  32  53 E7        29.95R
MEEKER         FAIR      51  36  56 CALM      29.93R
MOUNT WERNER   NOT AVBL
STEAMBOAT SPGS FAIR      48  29  46 E10       29.96R
WALDEN         FAIR      36  27  69 SE7       30.04R
$$

COZ006>008-011-240500-
...WEST CENTRAL VALLEYS...

CITY           SKY/WX    TMP DP  RH WIND       PRES   REMARKS
GRAND JUNCTION FAIR      56  21  25 NE6       29.84R
MONTROSE       FAIR      57  20  23 S6        29.92R
EAGLE          FAIR      54  27  35 E9        29.97R
RIFLE          FAIR      54  32  43 E6        29.89R
DELTA          FAIR      66  13  12 NW5       29.87R
NUCLA          FAIR      54  19  26 SE9       29.94R
$$

COZ017>023-064>068-240500-
...SOUTHWEST COLORADO...

CITY           SKY/WX    TMP DP  RH WIND       PRES   REMARKS
DURANGO        FAIR      49  25  39 N9        29.95R
CORTEZ         FAIR      48  25  40 NE9       29.90R
PAGOSA SPRINGS FAIR      48  26  42 CALM      30.02R
TELLURIDE      FAIR      49  16  26 SE8       30.10R
WOLF CREEK PAS FAIR      34  18  51 SW16G25   30.25R WCI  23
$$

COZ009-010-012-014-032>034-037-058>063-240500-
...CENTRAL COLORADO...

CITY           SKY/WX    TMP DP  RH WIND       PRES   REMARKS
ASPEN          FAIR      47  25  42 S8        30.00R
BUENA VISTA    FAIR      45  21  38 W3        30.03R
COPPER MTN     NOT AVBL
BERTHOUD PASS  FAIR      30  21  69 S5        30.24R WCI  25
COTTONWOOD PAS FAIR      50  10  20 SW9       30.12R
GUNNISON       FAIR      50  18  27 N3        30.04R
KREMMLING      FAIR      46  28  49 E5        30.01R
LEADVILLE      FAIR      36  17  46 E7        30.10R
MONARCH PASS   FAIR      36  14  41 SW20      30.33R
SALIDA         FAIR      55  20  25 W8        30.07R
SUNLIGHT       FAIR      37  25  60 CALM      30.17R
WILKERSON PASS CLOUDY    39  25  56 S3        30.23R
$$

COZ069>075-240500-
...SAN LUIS VALLEY/SANGRE DE CRISTO MOUNTAINS...

CITY           SKY/WX    TMP DP  RH WIND       PRES   REMARKS
ALAMOSA        FAIR      47  29  49 CALM      30.00R
LA VETA PASS   FAIR      45  18  33 S7        30.16R
SAGUACHE       FAIR      48  19  32 N7        30.03R
$$

COZ035-036-038>040-240500-
...NORTHERN COLORADO FRONT RANGE...

CITY           SKY/WX    TMP DP  RH WIND       PRES   REMARKS
DENVER INTL AP FAIR      53  42  66 SE5       29.95R
DMNS CITY PARK   N/A     53  44  73 E6        29.96R
AURORA         PTCLDY    51  44  76 CALM      29.96R
FRONT RANGE AP NOT AVBL
ERIE MUNI ARPT FAIR      49  45  84 SW3       29.94R
BOULDER MUN AP FAIR      54  43  66 CALM      29.94R
CENTENNIAL     FAIR      55  41  59 CALM      29.96R
BROOMFIELD     MOCLDY    57  43  58 CALM      29.96R
FORT COLLINS   FAIR      55  41  58 CALM      29.94R
LONGMONT       FAIR      51  44  75 W3        29.96R
$$

COZ041-046-047-076>085-087-088-240500-
...PIKES PEAK/PALMER DIVIDE AND SOUTHERN FOOTHILLS...

CITY           SKY/WX    TMP DP  RH WIND       PRES   REMARKS
COLO. SPRINGS  FAIR      58  40  51 NW10      29.96R
A. F. ACADEMY  MOCLDY    52  39  62 N9        29.98R
SCHRIEVER AFB  NOT AVBL
ELLICOTT       FAIR     N/A N/A N/A N6        29.93R
FALCON         FAIR      52  40  63 N12       29.99R
FORT CARSON    FAIR      56  41  57 N13       29.92R
LIMON          FAIR      48  43  82 N6        29.91R
MONUMENT HILL  MOCLDY    46  41  81 N3        30.03R
TRINIDAD       FAIR      56  28  34 W8        29.90R
$$

COZ042>045-048>051-090-091-240500-
...NORTHEAST COLORADO...

CITY           SKY/WX    TMP DP  RH WIND       PRES   REMARKS
GREELEY ARPT   FAIR      54  45  71 CALM      29.93R
AKRON          CLOUDY    51  44  77 NE9       29.91R
BURLINGTON     FAIR      60  49  66 E10       29.86R
WRAY           FAIR      52  45  76 N13       29.89R
STERLING       FAIR      52  45  76 NE7       29.89R
HOLYOKE        FAIR      54  46  76 NE9       29.89F
FORT MORGAN    FAIR      51  42  71 NE9       29.91S
$$

COZ086-089-092>099-240500-
...SOUTHEAST COLORADO...

CITY           SKY/WX    TMP DP  RH WIND       PRES   REMARKS
PUEBLO         FAIR      65  42  43 N8        29.82R
LA JUNTA       FAIR      70  51  51 E12       29.80R
LAMAR          FAIR      66  54  65 E9        29.76R
SPRINGFIELD      N/A     62  43  49 S10       29.79R
$$



USA.gov is the U.S. government's official web portal to all federal, state and local government web resources and services.